owner,sensor,date,latitude,longitude,vertical_datum,sea_water_temperature,qcFlag
Murphy,ioos:station:wmo:42397:2,2023-01-01T00:05:00Z,28.7547,-88.2673,28.2,24.0,11111222
Murphy,ioos:station:wmo:42397:2,2023-01-01T00:24:00Z,28.7547,-88.2673,28.2,24.0,11111222
Murphy,ioos:station:wmo:42397:2,2023-01-01T00:44:00Z,28.7547,-88.2673,28.2,24.0,11111222
Murphy,ioos:station:wmo:42397:2,2023-01-01T01:04:00Z,28.7547,-88.2673,28.2,24.0,11111222
Murphy,ioos:station:wmo:42397:2,2023-01-01T01:24:00Z,28.7547,-88.2673,28.2,24.0,11111222
Murphy,ioos:station:wmo:42397:2,2023-01-01T01:44:00Z,28.7547,-88.2673,28.2,24.0,11111222
Murphy,ioos:station:wmo:42397:2,2023-01-01T02:04:00Z,28.7547,-88.2673,28.2,24.0,11111222
Murphy,ioos:station:wmo:42397:2,2023-01-01T02:24:00Z,28.7547,-88.2673,28.2,24.0,11111222
Murphy,ioos:station:wmo:42397:2,2023-01-01T02:44:00Z,28.7547,-88.2673,28.2,24.0,11111222
Murphy,ioos:station:wmo:42397:2,2023-01-01T03:04:00Z,28.7547,-88.2673,28.2,24.0,11111222
Murphy,ioos:station:wmo:42397:2,2023-01-01T03:24:00Z,28.7547,-88.2673,28.2,24.0,11111222
Murphy,ioos:station:wmo:42397:2,2023-01-01T03:43:00Z,28.7547,-88.2673,28.2,24.0,11111222
Murphy,ioos:station:wmo:42397:2,2023-01-01T04:03:00Z,28.7547,-88.2673,28.2,24.0,11111222
Murphy,ioos:station:wmo:42397:2,2023-01-01T04:23:00Z,28.7547,-88.2673,28.2,24.0,11111222
Murphy,ioos:station:wmo:42397:2,2023-01-01T04:43:00Z,28.7547,-88.2673,28.2,24.0,11111222
Murphy,ioos:station:wmo:42397:2,2023-01-01T05:03:00Z,28.7547,-88.2673,28.2,24.0,11111222
Murphy,ioos:station:wmo:42397:2,2023-01-01T05:22:00Z,28.7547,-88.2673,28.2,23.9,11111222
Murphy,ioos:station:wmo:42397:2,2023-01-01T05:41:00Z,28.7547,-88.2673,28.2,23.9,11111222
Murphy,ioos:station:wmo:42397:2,2023-01-01T06:01:00Z,28.7547,-88.2673,28.2,23.9,11111222
Murphy,ioos:station:wmo:42397:2,2023-01-01T06:21:00Z,28.7547,-88.2673,28.2,23.9,11111222
Murphy,ioos:station:wmo:42397:2,2023-01-01T06:41:00Z,28.7547,-88.2673,28.2,23.9,11111222
Murphy,ioos:station:wmo:42397:2,2023-01-01T07:01:00Z,28.7547,-88.2673,28.2,23.9,11111222
Murphy,ioos:station:wmo:42397:2,2023-01-01T07:21:00Z,28.7547,-88.2673,28.2,23.9,11111222
Murphy,ioos:station:wmo:42397:2,2023-01-01T07:41:00Z,28.7547,-88.2673,28.2,23.9,11111222
Murphy,ioos:station:wmo:42397:2,2023-01-01T08:01:00Z,28.7547,-88.2673,28.2,23.9,11111222
Murphy,ioos:station:wmo:42397:2,2023-01-01T08:21:00Z,28.7547,-88.2673,28.2,24.0,11111222
Murphy,ioos:station:wmo:42397:2,2023-01-01T08:40:00Z,28.7547,-88.2673,28.2,24.0,11111222
Murphy,ioos:station:wmo:42397:2,2023-01-01T08:59:00Z,28.7547,-88.2673,28.2,24.0,11111222
Murphy,ioos:station:wmo:42397:2,2023-01-01T09:18:00Z,28.7547,-88.2673,28.2,24.0,11111222
Murphy,ioos:station:wmo:42397:2,2023-01-01T09:38:00Z,28.7547,-88.2673,28.2,24.0,11111222
Murphy,ioos:station:wmo:42397:2,2023-01-01T09:58:00Z,28.7547,-88.2673,28.2,24.0,11111222
Murphy,ioos:station:wmo:42397:2,2023-01-01T10:18:00Z,28.7547,-88.2673,28.2,24.0,11111222
Murphy,ioos:station:wmo:42397:2,2023-01-01T10:38:00Z,28.7547,-88.2673,28.2,24.0,11111222
Murphy,ioos:station:wmo:42397:2,2023-01-01T10:58:00Z,28.7547,-88.2673,28.2,24.0,11111222
Murphy,ioos:station:wmo:42397:2,2023-01-01T11:18:00Z,28.7547,-88.2673,28.2,24.0,11111222
Murphy,ioos:station:wmo:42397:2,2023-01-01T11:38:00Z,28.7547,-88.2673,28.2,24.0,11111222
Murphy,ioos:station:wmo:42397:2,2023-01-01T11:58:00Z,28.7547,-88.2673,28.2,24.0,11111222
Murphy,ioos:station:wmo:42397:2,2023-01-01T12:18:00Z,28.7547,-88.2673,28.2,24.0,11111222
Murphy,ioos:station:wmo:42397:2,2023-01-01T12:38:00Z,28.7547,-88.2673,28.2,24.0,11111222
Murphy,ioos:station:wmo:42397:2,2023-01-01T12:58:00Z,28.7547,-88.2673,28.2,24.0,11111222
Murphy,ioos:station:wmo:42397:2,2023-01-01T13:18:00Z,28.7547,-88.2673,28.2,23.9,11111222
Murphy,ioos:station:wmo:42397:2,2023-01-01T13:38:00Z,28.7547,-88.2673,28.2,23.9,11111222
Murphy,ioos:station:wmo:42397:2,2023-01-01T13:58:00Z,28.7547,-88.2673,28.2,23.9,11111222
Murphy,ioos:station:wmo:42397:2,2023-01-01T14:18:00Z,28.7547,-88.2673,28.2,23.9,11111222
Murphy,ioos:station:wmo:42397:2,2023-01-01T14:38:00Z,28.7547,-88.2673,28.2,23.9,11111222
Murphy,ioos:station:wmo:42397:2,2023-01-01T14:58:00Z,28.7547,-88.2673,28.2,24.1,11111222
Murphy,ioos:station:wmo:42397:2,2023-01-01T15:18:00Z,28.7547,-88.2673,28.2,24.2,11111222
Murphy,ioos:station:wmo:42397:2,2023-01-01T15:38:00Z,28.7547,-88.2673,28.2,24.2,11111222
Murphy,ioos:station:wmo:42397:2,2023-01-01T15:58:00Z,28.7547,-88.2673,28.2,24.2,11111222
Murphy,ioos:station:wmo:42397:2,2023-01-01T16:18:00Z,28.7547,-88.2673,28.2,24.2,11111222
Murphy,ioos:station:wmo:42397:2,2023-01-01T16:38:00Z,28.7547,-88.2673,28.2,24.3,11111222
Murphy,ioos:station:wmo:42397:2,2023-01-01T16:57:00Z,28.7547,-88.2673,28.2,24.3,11111222
Murphy,ioos:station:wmo:42397:2,2023-01-01T17:17:00Z,28.7547,-88.2673,28.2,24.3,11111222
Murphy,ioos:station:wmo:42397:2,2023-01-01T17:37:00Z,28.7547,-88.2673,28.2,24.3,11111222
Murphy,ioos:station:wmo:42397:2,2023-01-01T17:57:00Z,28.7547,-88.2673,28.2,24.3,11111222
Murphy,ioos:station:wmo:42397:2,2023-01-01T18:17:00Z,28.7547,-88.2673,28.2,24.3,11111222
Murphy,ioos:station:wmo:42397:2,2023-01-01T18:37:00Z,28.7547,-88.2673,28.2,24.3,11111222
Murphy,ioos:station:wmo:42397:2,2023-01-01T18:57:00Z,28.7547,-88.2673,28.2,24.3,11111222
Murphy,ioos:station:wmo:42397:2,2023-01-01T19:17:00Z,28.7547,-88.2673,28.2,24.3,11111222
Murphy,ioos:station:wmo:42397:2,2023-01-01T19:37:00Z,28.7547,-88.2673,28.2,24.4,11111222
Murphy,ioos:station:wmo:42397:2,2023-01-01T19:57:00Z,28.7547,-88.2673,28.2,24.4,11111222
Murphy,ioos:station:wmo:42397:2,2023-01-01T20:17:00Z,28.7547,-88.2673,28.2,24.4,11111222
Murphy,ioos:station:wmo:42397:2,2023-01-01T20:37:00Z,28.7547,-88.2673,28.2,24.5,11111222
Murphy,ioos:station:wmo:42397:2,2023-01-01T20:56:00Z,28.7547,-88.2673,28.2,24.5,11111222
Murphy,ioos:station:wmo:42397:2,2023-01-01T21:15:00Z,28.7547,-88.2673,28.2,24.6,11111222
Murphy,ioos:station:wmo:42397:2,2023-01-01T21:35:00Z,28.7547,-88.2673,28.2,24.6,11111222
Murphy,ioos:station:wmo:42397:2,2023-01-01T21:55:00Z,28.7547,-88.2673,28.2,24.6,11111222
Murphy,ioos:station:wmo:42397:2,2023-01-01T22:15:00Z,28.7547,-88.2673,28.2,24.5,11111222
Murphy,ioos:station:wmo:42397:2,2023-01-01T22:34:00Z,28.7547,-88.2673,28.2,24.5,11111222
Murphy,ioos:station:wmo:42397:2,2023-01-01T22:54:00Z,28.7547,-88.2673,28.2,24.4,11111222
Murphy,ioos:station:wmo:42397:2,2023-01-01T23:14:00Z,28.7547,-88.2673,28.2,24.5,11111222
Murphy,ioos:station:wmo:42397:2,2023-01-01T23:34:00Z,28.7547,-88.2673,28.2,24.5,11111222
Murphy,ioos:station:wmo:42397:2,2023-01-01T23:54:00Z,28.7547,-88.2673,28.2,24.4,11111222
Murphy,ioos:station:wmo:42397:2,2023-01-02T00:14:00Z,28.7547,-88.2673,28.2,24.3,11111222
Murphy,ioos:station:wmo:42397:2,2023-01-02T00:34:00Z,28.7547,-88.2673,28.2,24.3,11111222
Murphy,ioos:station:wmo:42397:2,2023-01-02T00:54:00Z,28.7547,-88.2673,28.2,24.3,11111222
Murphy,ioos:station:wmo:42397:2,2023-01-02T01:14:00Z,28.7547,-88.2673,28.2,24.3,11111222
Murphy,ioos:station:wmo:42397:2,2023-01-02T01:34:00Z,28.7547,-88.2673,28.2,24.3,11111222
Murphy,ioos:station:wmo:42397:2,2023-01-02T01:54:00Z,28.7547,-88.2673,28.2,24.3,11111222
Murphy,ioos:station:wmo:42397:2,2023-01-02T02:13:00Z,28.7547,-88.2673,28.2,24.3,11111222
Murphy,ioos:station:wmo:42397:2,2023-01-02T02:33:00Z,28.7547,-88.2673,28.2,24.4,11111222
Murphy,ioos:station:wmo:42397:2,2023-01-02T02:53:00Z,28.7547,-88.2673,28.2,24.4,11111222
Murphy,ioos:station:wmo:42397:2,2023-01-02T03:13:00Z,28.7547,-88.2673,28.2,24.3,11111222
Murphy,ioos:station:wmo:42397:2,2023-01-02T03:33:00Z,28.7547,-88.2673,28.2,24.3,11111222
Murphy,ioos:station:wmo:42397:2,2023-01-02T03:53:00Z,28.7547,-88.2673,28.2,24.3,11111222
Murphy,ioos:station:wmo:42397:2,2023-01-02T04:13:00Z,28.7547,-88.2673,28.2,24.2,11111222
Murphy,ioos:station:wmo:42397:2,2023-01-02T04:32:00Z,28.7547,-88.2673,28.2,24.2,11111222
Murphy,ioos:station:wmo:42397:2,2023-01-02T04:51:00Z,28.7547,-88.2673,28.2,24.2,11111222
Murphy,ioos:station:wmo:42397:2,2023-01-02T05:10:00Z,28.7547,-88.2673,28.2,24.2,11111222
Murphy,ioos:station:wmo:42397:2,2023-01-02T05:30:00Z,28.7547,-88.2673,28.2,24.2,11111222
Murphy,ioos:station:wmo:42397:2,2023-01-02T05:50:00Z,28.7547,-88.2673,28.2,24.2,11111222
Murphy,ioos:station:wmo:42397:2,2023-01-02T06:10:00Z,28.7547,-88.2673,28.2,24.2,11111222
Murphy,ioos:station:wmo:42397:2,2023-01-02T06:30:00Z,28.7547,-88.2673,28.2,24.2,11111222
Murphy,ioos:station:wmo:42397:2,2023-01-02T06:50:00Z,28.7547,-88.2673,28.2,24.2,11111222
Murphy,ioos:station:wmo:42397:2,2023-01-02T07:10:00Z,28.7547,-88.2673,28.2,24.2,11111222
Murphy,ioos:station:wmo:42397:2,2023-01-02T07:30:00Z,28.7547,-88.2673,28.2,24.2,11111222
Murphy,ioos:station:wmo:42397:2,2023-01-02T07:50:00Z,28.7547,-88.2673,28.2,24.3,11111222
Murphy,ioos:station:wmo:42397:2,2023-01-02T08:10:00Z,28.7547,-88.2673,28.2,24.4,11111222
Murphy,ioos:station:wmo:42397:2,2023-01-02T08:30:00Z,28.7547,-88.2673,28.2,24.3,11111222
Murphy,ioos:station:wmo:42397:2,2023-01-02T08:50:00Z,28.7547,-88.2673,28.2,24.4,11111222
Murphy,ioos:station:wmo:42397:2,2023-01-02T09:10:00Z,28.7547,-88.2673,28.2,24.3,11111222
Murphy,ioos:station:wmo:42397:2,2023-01-02T09:30:00Z,28.7547,-88.2673,28.2,24.3,11111222
Murphy,ioos:station:wmo:42397:2,2023-01-02T09:50:00Z,28.7547,-88.2673,28.2,24.3,11111222
Murphy,ioos:station:wmo:42397:2,2023-01-02T10:10:00Z,28.7547,-88.2673,28.2,24.4,11111222
Murphy,ioos:station:wmo:42397:2,2023-01-02T10:30:00Z,28.7547,-88.2673,28.2,24.4,11111222
Murphy,ioos:station:wmo:42397:2,2023-01-02T10:50:00Z,28.7547,-88.2673,28.2,24.4,11111222
Murphy,ioos:station:wmo:42397:2,2023-01-02T11:10:00Z,28.7547,-88.2673,28.2,24.3,11111222
Murphy,ioos:station:wmo:42397:2,2023-01-02T11:30:00Z,28.7547,-88.2673,28.2,24.3,11111222
Murphy,ioos:station:wmo:42397:2,2023-01-02T11:50:00Z,28.7547,-88.2673,28.2,24.3,11111222
Murphy,ioos:station:wmo:42397:2,2023-01-02T12:10:00Z,28.7547,-88.2673,28.2,24.2,11111222
Murphy,ioos:station:wmo:42397:2,2023-01-02T12:30:00Z,28.7547,-88.2673,28.2,24.2,11111222
Murphy,ioos:station:wmo:42397:2,2023-01-02T12:50:00Z,28.7547,-88.2673,28.2,24.2,11111222
Murphy,ioos:station:wmo:42397:2,2023-01-02T13:10:00Z,28.7547,-88.2673,28.2,24.3,11111222
Murphy,ioos:station:wmo:42397:2,2023-01-02T13:30:00Z,28.7547,-88.2673,28.2,24.3,11111222
Murphy,ioos:station:wmo:42397:2,2023-01-02T13:50:00Z,28.7547,-88.2673,28.2,24.3,11111222
Murphy,ioos:station:wmo:42397:2,2023-01-02T14:10:00Z,28.7547,-88.2673,28.2,24.3,11111222
Murphy,ioos:station:wmo:42397:2,2023-01-02T14:30:00Z,28.7547,-88.2673,28.2,24.3,11111222
Murphy,ioos:station:wmo:42397:2,2023-01-02T14:50:00Z,28.7547,-88.2673,28.2,24.4,11111222
Murphy,ioos:station:wmo:42397:2,2023-01-02T15:10:00Z,28.7547,-88.2673,28.2,24.5,11111222
Murphy,ioos:station:wmo:42397:2,2023-01-02T15:30:00Z,28.7547,-88.2673,28.2,24.5,11111222
Murphy,ioos:station:wmo:42397:2,2023-01-02T15:50:00Z,28.7547,-88.2673,28.2,24.5,11111222
Murphy,ioos:station:wmo:42397:2,2023-01-02T16:10:00Z,28.7547,-88.2673,28.2,24.5,11111222
Murphy,ioos:station:wmo:42397:2,2023-01-02T16:30:00Z,28.7547,-88.2673,28.2,24.5,11111222
Murphy,ioos:station:wmo:42397:2,2023-01-02T16:50:00Z,28.7547,-88.2673,28.2,24.5,11111222
Murphy,ioos:station:wmo:42397:2,2023-01-02T17:10:00Z,28.7547,-88.2673,28.2,24.5,11111222
Murphy,ioos:station:wmo:42397:2,2023-01-02T17:30:00Z,28.7547,-88.2673,28.2,24.4,11111222
Murphy,ioos:station:wmo:42397:2,2023-01-02T17:50:00Z,28.7547,-88.2673,28.2,24.4,11111222
Murphy,ioos:station:wmo:42397:2,2023-01-02T18:10:00Z,28.7547,-88.2673,28.2,24.3,11111222
Murphy,ioos:station:wmo:42397:2,2023-01-02T18:30:00Z,28.7547,-88.2673,28.2,24.3,11111222
Murphy,ioos:station:wmo:42397:2,2023-01-02T18:50:00Z,28.7547,-88.2673,28.2,24.3,11111222
Murphy,ioos:station:wmo:42397:2,2023-01-02T19:10:00Z,28.7547,-88.2673,28.2,24.3,11111222
Murphy,ioos:station:wmo:42397:2,2023-01-02T19:29:00Z,28.7547,-88.2673,28.2,24.3,11111222
Murphy,ioos:station:wmo:42397:2,2023-01-02T19:48:00Z,28.7547,-88.2673,28.2,24.4,11111222
Murphy,ioos:station:wmo:42397:2,2023-01-02T20:08:00Z,28.7547,-88.2673,28.2,24.4,11111222
Murphy,ioos:station:wmo:42397:2,2023-01-02T20:27:00Z,28.7547,-88.2673,28.2,24.4,11111222
Murphy,ioos:station:wmo:42397:2,2023-01-02T20:47:00Z,28.7547,-88.2673,28.2,24.4,11111222
Murphy,ioos:station:wmo:42397:2,2023-01-02T21:07:00Z,28.7547,-88.2673,28.2,24.4,11111222
Murphy,ioos:station:wmo:42397:2,2023-01-02T21:27:00Z,28.7547,-88.2673,28.2,24.3,11111222
Murphy,ioos:station:wmo:42397:2,2023-01-02T21:47:00Z,28.7547,-88.2673,28.2,24.3,11111222
Murphy,ioos:station:wmo:42397:2,2023-01-02T22:07:00Z,28.7547,-88.2673,28.2,24.3,11111222
Murphy,ioos:station:wmo:42397:2,2023-01-02T22:27:00Z,28.7547,-88.2673,28.2,24.3,11111222
Murphy,ioos:station:wmo:42397:2,2023-01-02T22:46:00Z,28.7547,-88.2673,28.2,24.3,11111222
Murphy,ioos:station:wmo:42397:2,2023-01-02T23:05:00Z,28.7547,-88.2673,28.2,24.3,11111222
Murphy,ioos:station:wmo:42397:2,2023-01-02T23:25:00Z,28.7547,-88.2673,28.2,24.4,11111222
Murphy,ioos:station:wmo:42397:2,2023-01-02T23:45:00Z,28.7547,-88.2673,28.2,24.3,11111222
Murphy,ioos:station:wmo:42397:2,2023-01-03T00:05:00Z,28.7547,-88.2673,28.2,24.3,11111222
Murphy,ioos:station:wmo:42397:2,2023-01-03T00:25:00Z,28.7547,-88.2673,28.2,24.3,11111222
Murphy,ioos:station:wmo:42397:2,2023-01-03T00:45:00Z,28.7547,-88.2673,28.2,24.3,11111222
Murphy,ioos:station:wmo:42397:2,2023-01-03T01:05:00Z,28.7547,-88.2673,28.2,24.3,11111222
Murphy,ioos:station:wmo:42397:2,2023-01-03T01:24:00Z,28.7547,-88.2673,28.2,24.3,11111222
Murphy,ioos:station:wmo:42397:2,2023-01-03T01:44:00Z,28.7547,-88.2673,28.2,24.3,11111222
Murphy,ioos:station:wmo:42397:2,2023-01-03T02:04:00Z,28.7547,-88.2673,28.2,24.3,11111222
Murphy,ioos:station:wmo:42397:2,2023-01-03T02:24:00Z,28.7547,-88.2673,28.2,24.3,11111222
Murphy,ioos:station:wmo:42397:2,2023-01-03T02:44:00Z,28.7547,-88.2673,28.2,24.3,11111222
Murphy,ioos:station:wmo:42397:2,2023-01-03T03:04:00Z,28.7547,-88.2673,28.2,24.3,11111222
Murphy,ioos:station:wmo:42397:2,2023-01-03T03:24:00Z,28.7547,-88.2673,28.2,24.3,11111222
Murphy,ioos:station:wmo:42397:2,2023-01-03T03:44:00Z,28.7547,-88.2673,28.2,24.2,11111222
Murphy,ioos:station:wmo:42397:2,2023-01-03T04:04:00Z,28.7547,-88.2673,28.2,24.1,11111222
Murphy,ioos:station:wmo:42397:2,2023-01-03T04:24:00Z,28.7547,-88.2673,28.2,24.2,11111222
Murphy,ioos:station:wmo:42397:2,2023-01-03T04:44:00Z,28.7547,-88.2673,28.2,24.1,11111222
Murphy,ioos:station:wmo:42397:2,2023-01-03T05:04:00Z,28.7547,-88.2673,28.2,24.2,11111222
Murphy,ioos:station:wmo:42397:2,2023-01-03T05:24:00Z,28.7547,-88.2673,28.2,24.2,11111222
Murphy,ioos:station:wmo:42397:2,2023-01-03T05:44:00Z,28.7547,-88.2673,28.2,24.1,11111222
Murphy,ioos:station:wmo:42397:2,2023-01-03T06:04:00Z,28.7547,-88.2673,28.2,24.1,11111222
Murphy,ioos:station:wmo:42397:2,2023-01-03T06:24:00Z,28.7547,-88.2673,28.2,24.1,11111222
Murphy,ioos:station:wmo:42397:2,2023-01-03T06:44:00Z,28.7547,-88.2673,28.2,24.1,11111222
Murphy,ioos:station:wmo:42397:2,2023-01-03T07:04:00Z,28.7547,-88.2673,28.2,24.1,11111222
Murphy,ioos:station:wmo:42397:2,2023-01-03T07:24:00Z,28.7547,-88.2673,28.2,24.1,11111222
Murphy,ioos:station:wmo:42397:2,2023-01-03T07:44:00Z,28.7547,-88.2673,28.2,24.1,11111222
Murphy,ioos:station:wmo:42397:2,2023-01-03T08:04:00Z,28.7547,-88.2673,28.2,24.1,11111222
Murphy,ioos:station:wmo:42397:2,2023-01-03T08:24:00Z,28.7547,-88.2673,28.2,24.2,11111222
Murphy,ioos:station:wmo:42397:2,2023-01-03T08:44:00Z,28.7547,-88.2673,28.2,24.1,11111222
Murphy,ioos:station:wmo:42397:2,2023-01-03T09:04:00Z,28.7547,-88.2673,28.2,24.2,11111222
Murphy,ioos:station:wmo:42397:2,2023-01-03T09:24:00Z,28.7547,-88.2673,28.2,24.1,11111222
Murphy,ioos:station:wmo:42397:2,2023-01-03T09:44:00Z,28.7547,-88.2673,28.2,24.1,11111222
Murphy,ioos:station:wmo:42397:2,2023-01-03T10:04:00Z,28.7547,-88.2673,28.2,24.1,11111222
Murphy,ioos:station:wmo:42397:2,2023-01-03T10:24:00Z,28.7547,-88.2673,28.2,24.1,11111222
Murphy,ioos:station:wmo:42397:2,2023-01-03T10:44:00Z,28.7547,-88.2673,28.2,24.1,11111222
Murphy,ioos:station:wmo:42397:2,2023-01-03T11:04:00Z,28.7547,-88.2673,28.2,24.1,11111222
Murphy,ioos:station:wmo:42397:2,2023-01-03T11:24:00Z,28.7547,-88.2673,28.2,24.2,11111222
Murphy,ioos:station:wmo:42397:2,2023-01-03T11:44:00Z,28.7547,-88.2673,28.2,24.1,11111222
Murphy,ioos:station:wmo:42397:2,2023-01-03T12:03:00Z,28.7547,-88.2673,28.2,24.0,11111222
Murphy,ioos:station:wmo:42397:2,2023-01-03T12:23:00Z,28.7547,-88.2673,28.2,23.6,11111222
Murphy,ioos:station:wmo:42397:2,2023-01-03T12:43:00Z,28.7547,-88.2673,28.2,23.6,11111222
Murphy,ioos:station:wmo:42397:2,2023-01-03T13:03:00Z,28.7547,-88.2673,28.2,23.3,11111222
Murphy,ioos:station:wmo:42397:2,2023-01-03T13:23:00Z,28.7547,-88.2673,28.2,23.2,11111222
Murphy,ioos:station:wmo:42397:2,2023-01-03T13:43:00Z,28.7547,-88.2673,28.2,23.1,11111222
Murphy,ioos:station:wmo:42397:2,2023-01-03T14:03:00Z,28.7547,-88.2673,28.2,23.0,11111222
Murphy,ioos:station:wmo:42397:2,2023-01-03T14:23:00Z,28.7547,-88.2673,28.2,23.1,11111222
Murphy,ioos:station:wmo:42397:2,2023-01-03T14:43:00Z,28.7547,-88.2673,28.2,23.0,11111222
Murphy,ioos:station:wmo:42397:2,2023-01-03T15:03:00Z,28.7547,-88.2673,28.2,23.0,11111222
Murphy,ioos:station:wmo:42397:2,2023-01-03T15:23:00Z,28.7547,-88.2673,28.2,23.0,11111222
Murphy,ioos:station:wmo:42397:2,2023-01-03T15:43:00Z,28.7547,-88.2673,28.2,23.1,11111222
Murphy,ioos:station:wmo:42397:2,2023-01-03T16:03:00Z,28.7547,-88.2673,28.2,23.1,11111222
Murphy,ioos:station:wmo:42397:2,2023-01-03T16:23:00Z,28.7547,-88.2673,28.2,23.2,11111222
Murphy,ioos:station:wmo:42397:2,2023-01-03T16:43:00Z,28.7547,-88.2673,28.2,23.3,11111222
Murphy,ioos:station:wmo:42397:2,2023-01-03T17:03:00Z,28.7547,-88.2673,28.2,23.3,11111222
Murphy,ioos:station:wmo:42397:2,2023-01-03T17:23:00Z,28.7547,-88.2673,28.2,23.3,11111222
Murphy,ioos:station:wmo:42397:2,2023-01-03T17:43:00Z,28.7547,-88.2673,28.2,23.3,11111222
Murphy,ioos:station:wmo:42397:2,2023-01-03T18:03:00Z,28.7547,-88.2673,28.2,23.3,11111222
Murphy,ioos:station:wmo:42397:2,2023-01-03T18:23:00Z,28.7547,-88.2673,28.2,23.3,11111222
Murphy,ioos:station:wmo:42397:2,2023-01-03T18:43:00Z,28.7547,-88.2673,28.2,23.3,11111222
Murphy,ioos:station:wmo:42397:2,2023-01-03T19:03:00Z,28.7547,-88.2673,28.2,23.3,11111222
Murphy,ioos:station:wmo:42397:2,2023-01-03T19:23:00Z,28.7547,-88.2673,28.2,23.2,11111222
Murphy,ioos:station:wmo:42397:2,2023-01-03T19:43:00Z,28.7547,-88.2673,28.2,23.1,11111222
Murphy,ioos:station:wmo:42397:2,2023-01-03T20:03:00Z,28.7547,-88.2673,28.2,23.1,11111222
Murphy,ioos:station:wmo:42397:2,2023-01-03T20:23:00Z,28.7547,-88.2673,28.2,23.1,11111222
Murphy,ioos:station:wmo:42397:2,2023-01-03T20:43:00Z,28.7547,-88.2673,28.2,23.0,11111222
Murphy,ioos:station:wmo:42397:2,2023-01-03T21:03:00Z,28.7547,-88.2673,28.2,23.0,11111222
Murphy,ioos:station:wmo:42397:2,2023-01-03T21:23:00Z,28.7547,-88.2673,28.2,23.4,11111222
Murphy,ioos:station:wmo:42397:2,2023-01-03T21:42:00Z,28.7547,-88.2673,28.2,23.6,11111222
Murphy,ioos:station:wmo:42397:2,2023-01-03T22:02:00Z,28.7547,-88.2673,28.2,23.7,11111222
Murphy,ioos:station:wmo:42397:2,2023-01-03T22:22:00Z,28.7547,-88.2673,28.2,23.3,11111222
Murphy,ioos:station:wmo:42397:2,2023-01-03T22:42:00Z,28.7547,-88.2673,28.2,23.3,11111222
Murphy,ioos:station:wmo:42397:2,2023-01-03T23:02:00Z,28.7547,-88.2673,28.2,23.6,11111222
Murphy,ioos:station:wmo:42397:2,2023-01-03T23:22:00Z,28.7547,-88.2673,28.2,23.3,11111222
Murphy,ioos:station:wmo:42397:2,2023-01-03T23:42:00Z,28.7547,-88.2673,28.2,23.1,11111222
Murphy,ioos:station:wmo:42397:2,2023-01-04T00:02:00Z,28.7547,-88.2673,28.2,23.1,11111222
Murphy,ioos:station:wmo:42397:2,2023-01-04T00:22:00Z,28.7547,-88.2673,28.2,23.1,11111222
Murphy,ioos:station:wmo:42397:2,2023-01-04T00:42:00Z,28.7547,-88.2673,28.2,23.1,11111222
Murphy,ioos:station:wmo:42397:2,2023-01-04T01:02:00Z,28.7547,-88.2673,28.2,23.0,11111222
Murphy,ioos:station:wmo:42397:2,2023-01-04T01:22:00Z,28.7547,-88.2673,28.2,23.0,11111222
Murphy,ioos:station:wmo:42397:2,2023-01-04T01:42:00Z,28.7547,-88.2673,28.2,23.0,11111222
Murphy,ioos:station:wmo:42397:2,2023-01-04T02:02:00Z,28.7547,-88.2673,28.2,23.0,11111222
Murphy,ioos:station:wmo:42397:2,2023-01-04T02:22:00Z,28.7547,-88.2673,28.2,23.1,11111222
Murphy,ioos:station:wmo:42397:2,2023-01-04T02:42:00Z,28.7547,-88.2673,28.2,23.1,11111222
Murphy,ioos:station:wmo:42397:2,2023-01-04T03:01:00Z,28.7547,-88.2673,28.2,23.1,11111222
Murphy,ioos:station:wmo:42397:2,2023-01-04T03:20:00Z,28.7547,-88.2673,28.2,23.1,11111222
Murphy,ioos:station:wmo:42397:2,2023-01-04T03:40:00Z,28.7547,-88.2673,28.2,23.2,11111222
Murphy,ioos:station:wmo:42397:2,2023-01-04T04:00:00Z,28.7547,-88.2673,28.2,23.1,11111222
Murphy,ioos:station:wmo:42397:2,2023-01-04T04:20:00Z,28.7547,-88.2673,28.2,23.2,11111222
Murphy,ioos:station:wmo:42397:2,2023-01-04T04:40:00Z,28.7547,-88.2673,28.2,23.3,11111222
Murphy,ioos:station:wmo:42397:2,2023-01-04T05:00:00Z,28.7547,-88.2673,28.2,23.3,11111222
Murphy,ioos:station:wmo:42397:2,2023-01-04T05:20:00Z,28.7547,-88.2673,28.2,23.3,11111222
Murphy,ioos:station:wmo:42397:2,2023-01-04T05:40:00Z,28.7547,-88.2673,28.2,23.3,11111222
Murphy,ioos:station:wmo:42397:2,2023-01-04T06:00:00Z,28.7547,-88.2673,28.2,23.2,11111222
Murphy,ioos:station:wmo:42397:2,2023-01-04T06:20:00Z,28.7547,-88.2673,28.2,23.3,11111222
Murphy,ioos:station:wmo:42397:2,2023-01-04T06:40:00Z,28.7547,-88.2673,28.2,23.3,11111222
Murphy,ioos:station:wmo:42397:2,2023-01-04T07:00:00Z,28.7547,-88.2673,28.2,23.3,11111222
Murphy,ioos:station:wmo:42397:2,2023-01-04T07:20:00Z,28.7547,-88.2673,28.2,23.3,11111222
Murphy,ioos:station:wmo:42397:2,2023-01-04T07:40:00Z,28.7547,-88.2673,28.2,23.3,11111222
Murphy,ioos:station:wmo:42397:2,2023-01-04T08:00:00Z,28.7547,-88.2673,28.2,23.3,11111222
Murphy,ioos:station:wmo:42397:2,2023-01-04T08:20:00Z,28.7547,-88.2673,28.2,23.3,11111222
Murphy,ioos:station:wmo:42397:2,2023-01-04T08:40:00Z,28.7547,-88.2673,28.2,23.3,11111222
Murphy,ioos:station:wmo:42397:2,2023-01-04T08:59:00Z,28.7547,-88.2673,28.2,23.3,11111222
Murphy,ioos:station:wmo:42397:2,2023-01-04T09:19:00Z,28.7547,-88.2673,28.2,23.4,11111222
Murphy,ioos:station:wmo:42397:2,2023-01-04T09:39:00Z,28.7547,-88.2673,28.2,23.4,11111222
Murphy,ioos:station:wmo:42397:2,2023-01-04T09:58:00Z,28.7547,-88.2673,28.2,23.4,11111222
Murphy,ioos:station:wmo:42397:2,2023-01-04T10:18:00Z,28.7547,-88.2673,28.2,23.4,11111222
Murphy,ioos:station:wmo:42397:2,2023-01-04T10:37:00Z,28.7547,-88.2673,28.2,23.4,11111222
Murphy,ioos:station:wmo:42397:2,2023-01-04T10:57:00Z,28.7547,-88.2673,28.2,23.4,11111222
Murphy,ioos:station:wmo:42397:2,2023-01-04T11:17:00Z,28.7547,-88.2673,28.2,23.4,11111222
Murphy,ioos:station:wmo:42397:2,2023-01-04T11:37:00Z,28.7547,-88.2673,28.2,23.4,11111222
Murphy,ioos:station:wmo:42397:2,2023-01-04T11:57:00Z,28.7547,-88.2673,28.2,23.5,11111222
Murphy,ioos:station:wmo:42397:2,2023-01-04T12:17:00Z,28.7547,-88.2673,28.2,23.5,11111222
Murphy,ioos:station:wmo:42397:2,2023-01-04T12:37:00Z,28.7547,-88.2673,28.2,23.5,11111222
Murphy,ioos:station:wmo:42397:2,2023-01-04T12:56:00Z,28.7547,-88.2673,28.2,23.5,11111222
Murphy,ioos:station:wmo:42397:2,2023-01-04T13:15:00Z,28.7547,-88.2673,28.2,23.6,11111222
Murphy,ioos:station:wmo:42397:2,2023-01-04T13:35:00Z,28.7547,-88.2673,28.2,23.6,11111222
Murphy,ioos:station:wmo:42397:2,2023-01-04T13:55:00Z,28.7547,-88.2673,28.2,23.6,11111222
Murphy,ioos:station:wmo:42397:2,2023-01-04T14:15:00Z,28.7547,-88.2673,28.2,23.6,11111222
Murphy,ioos:station:wmo:42397:2,2023-01-04T14:35:00Z,28.7547,-88.2673,28.2,23.6,11111222
Murphy,ioos:station:wmo:42397:2,2023-01-04T14:55:00Z,28.7547,-88.2673,28.2,23.7,11111222
Murphy,ioos:station:wmo:42397:2,2023-01-04T15:15:00Z,28.7547,-88.2673,28.2,23.7,11111222
Murphy,ioos:station:wmo:42397:2,2023-01-04T15:35:00Z,28.7547,-88.2673,28.2,23.7,11111222